TimeCDT,TemperatureF,Dew PointF,Humidity,Sea Level PressureIn,VisibilityMPH,Wind Direction,Wind SpeedMPH,Gust SpeedMPH,PrecipitationIn,Events,Conditions,WindDirDegrees,DateUTC
12:14 AM,37.4,26.6,65,30.15,10.0,WNW,13.8,19.6,N/A,,Scattered Clouds,300,2012-10-06 05:14:00
12:34 AM,35.6,26.6,70,30.15,10.0,WNW,11.5,15.0,N/A,,Clear,300,2012-10-06 05:34:00
12:55 AM,35.6,26.6,70,30.16,10.0,WNW,12.7,20.7,N/A,,Scattered Clouds,290,2012-10-06 05:55:00
1:14 AM,35.6,26.6,70,30.16,10.0,WNW,6.9,10.4,N/A,,Mostly Cloudy,300,2012-10-06 06:14:00
1:54 AM,33.8,28.4,81,30.16,10.0,West,12.7,16.1,N/A,,Scattered Clouds,280,2012-10-06 06:54:00
2:14 AM,33.8,28.4,81,30.16,10.0,West,12.7,-,N/A,,Scattered Clouds,280,2012-10-06 07:14:00
2:34 AM,33.8,28.4,81,30.16,10.0,West,13.8,-,N/A,,Overcast,280,2012-10-06 07:34:00
2:54 AM,35.6,28.4,75,30.16,10.0,West,11.5,18.4,N/A,,Overcast,280,2012-10-06 07:54:00
3:14 AM,35.6,28.4,75,30.16,10.0,WNW,11.5,17.3,N/A,,Overcast,290,2012-10-06 08:14:00
3:34 AM,35.6,28.4,75,30.15,10.0,WNW,13.8,18.4,N/A,,Overcast,290,2012-10-06 08:34:00
3:54 AM,35.6,28.4,75,30.15,10.0,WNW,11.5,18.4,N/A,,Overcast,290,2012-10-06 08:54:00
4:14 AM,35.6,28.4,75,30.16,10.0,WNW,11.5,17.3,N/A,,Overcast,290,2012-10-06 09:14:00
4:34 AM,35.6,28.4,75,30.16,10.0,WNW,12.7,18.4,N/A,,Mostly Cloudy,290,2012-10-06 09:34:00
4:54 AM,35.6,28.4,75,30.16,10.0,WNW,11.5,17.3,N/A,,Mostly Cloudy,290,2012-10-06 09:54:00
5:14 AM,35.6,30.2,81,30.17,10.0,WNW,12.7,-,N/A,,Overcast,290,2012-10-06 10:14:00
5:34 AM,35.6,30.2,81,30.18,10.0,WNW,8.1,-,N/A,,Overcast,300,2012-10-06 10:34:00
5:54 AM,35.6,30.2,81,30.18,10.0,WNW,10.4,16.1,N/A,,Overcast,300,2012-10-06 10:54:00
6:14 AM,35.6,30.2,81,30.19,10.0,WNW,9.2,-,N/A,,Overcast,290,2012-10-06 11:14:00
6:34 AM,35.6,30.2,81,30.19,10.0,WNW,8.1,-,N/A,,Overcast,300,2012-10-06 11:34:00
6:54 AM,35.6,30.2,81,30.19,10.0,NW,8.1,-,N/A,,Overcast,310,2012-10-06 11:54:00
7:14 AM,35.6,30.2,81,30.20,10.0,NW,5.8,-,N/A,,Overcast,310,2012-10-06 12:14:00
7:34 AM,35.6,30.2,81,30.20,10.0,NW,8.1,-,N/A,,Overcast,310,2012-10-06 12:34:00
7:54 AM,35.6,30.2,81,30.21,10.0,NW,6.9,-,N/A,,Overcast,310,2012-10-06 12:54:00
8:14 AM,35.6,30.2,81,30.22,10.0,NW,6.9,-,N/A,,Mostly Cloudy,310,2012-10-06 13:14:00
8:34 AM,35.6,30.2,81,30.23,5.0,NW,9.2,-,N/A,,Drizzle,310,2012-10-06 13:34:00
8:54 AM,35.6,32.0,87,30.24,7.0,NW,6.9,-,N/A,,Light Drizzle,310,2012-10-06 13:54:00
9:14 AM,35.6,32.0,87,30.24,10.0,NW,6.9,-,N/A,,Overcast,320,2012-10-06 14:14:00
9:34 AM,35.6,30.2,81,30.25,10.0,NW,10.4,-,N/A,,Overcast,320,2012-10-06 14:34:00
9:54 AM,37.4,30.2,75,30.25,10.0,NW,11.5,16.1,N/A,,Overcast,320,2012-10-06 14:54:00
10:14 AM,37.4,30.2,75,30.26,10.0,NW,12.7,16.1,N/A,,Overcast,320,2012-10-06 15:14:00
10:34 AM,37.4,30.2,75,30.26,10.0,NW,11.5,-,N/A,,Overcast,320,2012-10-06 15:34:00
10:54 AM,37.4,30.2,75,30.26,10.0,NW,10.4,-,N/A,,Overcast,310,2012-10-06 15:54:00
11:14 AM,37.4,30.2,75,30.26,10.0,NW,10.4,-,N/A,,Overcast,310,2012-10-06 16:14:00
11:34 AM,39.2,30.2,70,30.26,10.0,WNW,10.4,-,N/A,,Overcast,300,2012-10-06 16:34:00
11:54 AM,39.2,28.4,65,30.27,10.0,NW,9.2,-,N/A,,Overcast,310,2012-10-06 16:54:00
12:15 PM,39.2,28.4,65,30.27,10.0,NW,11.5,17.3,N/A,,Overcast,320,2012-10-06 17:15:00
12:34 PM,39.2,28.4,65,30.27,10.0,NW,9.2,-,N/A,,Overcast,310,2012-10-06 17:34:00
12:54 PM,39.2,26.6,61,30.27,10.0,NW,10.4,-,N/A,,Overcast,310,2012-10-06 17:54:00
1:14 PM,39.2,26.6,61,30.26,10.0,NNW,8.1,-,N/A,,Overcast,330,2012-10-06 18:14:00
1:34 PM,39.2,26.6,61,30.26,10.0,NNW,8.1,-,N/A,,Overcast,330,2012-10-06 18:34:00
1:55 PM,39.2,26.6,61,30.26,10.0,North,8.1,-,N/A,,Overcast,350,2012-10-06 18:55:00
2:14 PM,41.0,26.6,57,30.25,10.0,NNW,9.2,-,N/A,,Overcast,340,2012-10-06 19:14:00
2:34 PM,41.0,26.6,57,30.25,10.0,NNW,11.5,16.1,N/A,,Overcast,330,2012-10-06 19:34:00
2:54 PM,42.8,26.6,53,30.25,10.0,NW,11.5,19.6,N/A,,Overcast,310,2012-10-06 19:54:00
3:14 PM,42.8,24.8,49,30.24,10.0,NNW,9.2,-,N/A,,Overcast,340,2012-10-06 20:14:00
3:34 PM,42.8,26.6,53,30.24,10.0,NNW,9.2,-,N/A,,Overcast,330,2012-10-06 20:34:00
3:54 PM,41.0,24.8,53,30.24,10.0,NNW,9.2,-,N/A,,Overcast,340,2012-10-06 20:54:00
4:14 PM,42.8,24.8,49,30.23,10.0,NNW,8.1,16.1,N/A,,Overcast,340,2012-10-06 21:14:00
4:34 PM,42.8,24.8,49,30.23,10.0,NW,6.9,-,N/A,,Overcast,320,2012-10-06 21:34:00
4:54 PM,42.8,23.0,46,30.22,10.0,NW,6.9,-,N/A,,Mostly Cloudy,320,2012-10-06 21:54:00
5:14 PM,41.0,23.0,49,30.22,10.0,NNW,4.6,-,N/A,,Scattered Clouds,340,2012-10-06 22:14:00
5:34 PM,42.8,23.0,46,30.22,10.0,North,5.8,-,N/A,,Mostly Cloudy,360,2012-10-06 22:34:00
5:54 PM,42.8,23.0,46,30.23,10.0,NW,4.6,-,N/A,,Overcast,310,2012-10-06 22:54:00
6:14 PM,41.0,23.0,49,30.23,10.0,NW,6.9,-,N/A,,Overcast,320,2012-10-06 23:14:00
6:34 PM,39.2,23.0,52,30.23,10.0,NW,5.8,-,N/A,,Overcast,320,2012-10-06 23:34:00
6:54 PM,39.2,24.8,56,30.24,10.0,WNW,4.6,-,N/A,,Overcast,290,2012-10-06 23:54:00
7:14 PM,39.2,24.8,56,30.24,10.0,WNW,4.6,-,N/A,,Overcast,290,2012-10-07 00:14:00
7:34 PM,39.2,24.8,56,30.24,10.0,WNW,4.6,-,N/A,,Overcast,290,2012-10-07 00:34:00
7:54 PM,39.2,24.8,56,30.24,10.0,WNW,3.5,-,N/A,,Overcast,300,2012-10-07 00:54:00
8:14 PM,39.2,24.8,56,30.25,10.0,Calm,Calm,-,N/A,,Overcast,0,2012-10-07 01:14:00
8:34 PM,39.2,24.8,56,30.25,10.0,Calm,Calm,-,N/A,,Overcast,0,2012-10-07 01:34:00
8:54 PM,39.2,26.6,61,30.25,10.0,Calm,Calm,-,N/A,,Overcast,0,2012-10-07 01:54:00
9:14 PM,37.4,26.6,65,30.25,10.0,WNW,3.5,-,N/A,,Overcast,290,2012-10-07 02:14:00
9:34 PM,37.4,26.6,65,30.25,10.0,WNW,3.5,-,N/A,,Overcast,290,2012-10-07 02:34:00
9:54 PM,37.4,26.6,65,30.25,10.0,West,3.5,-,N/A,,Overcast,270,2012-10-07 02:54:00
10:14 PM,39.2,26.6,61,30.25,10.0,West,4.6,-,N/A,,Overcast,260,2012-10-07 03:14:00
10:34 PM,39.2,26.6,61,30.25,10.0,West,4.6,-,N/A,,Overcast,270,2012-10-07 03:34:00
10:54 PM,37.4,26.6,65,30.24,10.0,West,4.6,-,N/A,,Overcast,280,2012-10-07 03:54:00
11:14 PM,37.4,26.6,65,30.24,10.0,West,3.5,-,N/A,,Overcast,280,2012-10-07 04:14:00
11:34 PM,37.4,26.6,65,30.24,10.0,West,5.8,-,N/A,,Overcast,270,2012-10-07 04:34:00
11:54 PM,37.4,26.6,65,30.23,10.0,West,5.8,-,N/A,,Overcast,270,2012-10-07 04:54:00